Pinedale, WY

6:46 PM MDT on May 22, 2017 (GMT -0600)
Wenz

Weather History for KPNA - January, 2013

Change the Weather History Date:

Wednesday, January 2, 2013

  Actual Average (KBPI) Record (KBPI)
Temperature  
Mean Temperature -2 °F -  
Max Temperature 14 °F 25 °F 47 °F (1997)
Min Temperature -18 °F 1 °F -23 °F (2016)
Degree Days  
Heating Degree Days 67    
Moisture  
Dew Point -12 °F    
Average Humidity 78    
Maximum Humidity 92    
Minimum Humidity 62    
Precipitation  
Precipitation 0.00 in - - ()
Sea Level Pressure  
Sea Level Pressure 30.22 in    
Wind  
Wind Speed 3 mph (WNW)    
Max Wind Speed 8 mph    
Max Gust Speed -    
Visibility 10 miles    
Events      
Averages and records for this station are not official NWS values.
T = Trace of Precipitation, MM = Missing Value Source: NWS Daily Summary

Daily Weather History Graph

Daily Weather History Graph

Search for Another Location

Airport or City:

Trip Planner

Search our weather history database for the weather conditions in past years. The results will help you decide how hot, cold, wet, or windy it might be!

Date:

Astronomy

Jan. 02, 2013 Rise Set
Actual Time 7:50 AM MST 4:57 PM MST
Civil Twilight 7:17 AM MST 5:29 PM MST
Nautical Twilight 6:42 AM MST 6:04 PM MST
Astronomical Twilight 6:08 AM MST 6:39 PM MST
Moon 10:41 PM MST (1/2) 10:25 AM MST (1/2)
Length of Visible Light 10h 11m
Length of Day
9h 07m
Waning Gibbous, 74% of the Moon is Illuminated
Jan 2
Waning Gibbous
Jan 4
Last Quarter
Jan 11
New
Jan 18
First Quarter
Jan 26
Full

Hourly Weather History & Observations

Time (MST) Temp. Windchill Dew Point Humidity Pressure Visibility Wind Dir Wind Speed Gust Speed Precip Events Conditions
12:15 AM -7.6 °F -18.8 °F -11.2 °F 84% 30.19 in 10.0 mi West 4.6 mph - N/A   Clear
12:35 AM -7.6 °F -18.8 °F -9.4 °F 92% 30.19 in 10.0 mi West 4.6 mph - N/A   Clear
12:55 AM -9.4 °F -20.9 °F -14.8 °F 77% 30.19 in 10.0 mi West 4.6 mph - N/A   Clear
1:15 AM -7.6 °F -16.5 °F -9.4 °F 92% 30.19 in 10.0 mi NNW 3.5 mph - N/A   Clear
1:35 AM -11.2 °F - -14.8 °F 84% 30.19 in 10.0 mi Calm Calm - N/A   Clear
1:55 AM -9.4 °F -18.6 °F -13.0 °F 84% 30.18 in 10.0 mi West 3.5 mph - N/A   Clear
2:15 AM -13.0 °F -25.1 °F -16.6 °F 84% 30.18 in 10.0 mi WNW 4.6 mph - N/A   Clear
2:35 AM -16.6 °F -29.3 °F -22.0 °F 76% 30.18 in 10.0 mi NW 4.6 mph - N/A   Clear
2:55 AM -16.6 °F -31.3 °F -22.0 °F 76% 30.18 in 10.0 mi WNW 5.8 mph - N/A   Clear
3:15 AM -13.0 °F -22.7 °F -16.6 °F 84% 30.18 in 10.0 mi West 3.5 mph - N/A   Clear
3:35 AM -14.8 °F -24.8 °F -20.2 °F 77% 30.18 in 10.0 mi WNW 3.5 mph - N/A   Clear
3:55 AM -14.8 °F -27.2 °F -18.4 °F 84% 30.18 in 10.0 mi West 4.6 mph - N/A   Clear
4:15 AM -14.8 °F -27.2 °F -18.4 °F 84% 30.17 in 10.0 mi West 4.6 mph - N/A   Clear
4:35 AM -13.0 °F - -16.6 °F 84% 30.17 in 10.0 mi Calm Calm - N/A   Clear
4:55 AM -13.0 °F -25.1 °F -16.6 °F 84% 30.18 in 10.0 mi WSW 4.6 mph - N/A   Clear
5:15 AM -14.8 °F - -20.2 °F 77% 30.18 in 10.0 mi Calm Calm - N/A   Clear
5:35 AM -14.8 °F - -20.2 °F 77% 30.18 in 10.0 mi Calm Calm - N/A   Clear
5:55 AM -18.4 °F - -22.0 °F 84% 30.19 in 10.0 mi Calm Calm - N/A   Clear
6:15 AM -18.4 °F -28.9 °F -23.8 °F 76% 30.19 in 10.0 mi NE 3.5 mph - N/A   Clear
6:35 AM -18.4 °F - -25.6 °F 70% 30.19 in 10.0 mi Calm Calm - N/A   Clear
6:55 AM -16.6 °F - -22.0 °F 76% 30.18 in 10.0 mi Calm Calm - N/A   Clear
7:15 AM -18.4 °F - -23.8 °F 76% 30.19 in 10.0 mi Calm Calm - N/A   Clear
7:35 AM -18.4 °F - -25.6 °F 70% 30.19 in 10.0 mi Calm Calm - N/A   Clear
7:55 AM -18.4 °F - -23.8 °F 76% 30.19 in 10.0 mi Calm Calm - N/A   Clear
8:15 AM -18.4 °F - -23.8 °F 76% 30.20 in 7.0 mi Calm Calm - N/A   Clear
8:35 AM -16.6 °F - -23.8 °F 70% 30.21 in 1.2 mi Calm Calm - N/A   Haze
8:55 AM -14.8 °F - -18.4 °F 84% 30.21 in 10.0 mi Calm Calm - N/A   Clear
9:15 AM -13.0 °F - -18.4 °F 77% 30.21 in 10.0 mi Calm Calm - N/A   Clear
9:35 AM -9.4 °F - -14.8 °F 77% 30.22 in 10.0 mi Calm Calm - N/A   Clear
9:55 AM -5.8 °F - -11.2 °F 77% 30.22 in 10.0 mi Calm Calm - N/A   Clear
10:15 AM -4.0 °F -12.4 °F -7.6 °F 85% 30.23 in 10.0 mi West 3.5 mph - N/A   Clear
10:35 AM -0.4 °F - -5.8 °F 78% 30.24 in 10.0 mi Calm Calm - N/A   Clear
10:55 AM 1.4 °F -8.3 °F -4.0 °F 78% 30.23 in 10.0 mi WNW 4.6 mph - N/A   Clear
11:15 AM 3.2 °F -6.2 °F -0.4 °F 85% 30.23 in 10.0 mi NNW 4.6 mph - N/A   Clear
11:35 AM 6.8 °F - 3.2 °F 85% 30.24 in 10.0 mi Calm Calm - N/A   Clear
11:55 AM 8.6 °F - 3.2 °F 79% 30.23 in 10.0 mi Calm Calm - N/A   Clear
12:15 PM 10.4 °F 4.0 °F 3.2 °F 73% 30.22 in 10.0 mi East 3.5 mph - N/A   Clear
12:35 PM 8.6 °F -3.7 °F 1.4 °F 73% 30.21 in 10.0 mi East 8.1 mph - N/A   Clear
12:55 PM 8.6 °F -1.3 °F 1.4 °F 73% 30.21 in 10.0 mi East 5.8 mph - N/A   Clear
1:15 PM 10.4 °F 2.2 °F 1.4 °F 67% 30.21 in 10.0 mi East 4.6 mph - N/A   Clear
1:35 PM 10.4 °F 4.0 °F 1.4 °F 67% 30.20 in 10.0 mi East 3.5 mph - N/A   Clear
2:15 PM 12.2 °F - 3.2 °F 67% 30.19 in 10.0 mi Calm Calm - N/A   Clear
2:35 PM 12.2 °F - 3.2 °F 67% 30.19 in 10.0 mi Calm Calm - N/A   Clear
2:55 PM 14.0 °F 6.5 °F 3.2 °F 62% 30.19 in 10.0 mi East 4.6 mph - N/A   Clear
3:15 PM 14.0 °F 6.5 °F 3.2 °F 62% 30.20 in 10.0 mi SE 4.6 mph - N/A   Clear
3:35 PM 14.0 °F - 5.0 °F 67% 30.20 in 10.0 mi Calm Calm - N/A   Clear
3:55 PM 14.0 °F 6.5 °F 3.2 °F 62% 30.21 in 10.0 mi East 4.6 mph - N/A   Clear
4:15 PM 12.2 °F 6.1 °F 3.2 °F 67% 30.21 in 10.0 mi ENE 3.5 mph - N/A   Clear
4:35 PM 10.4 °F 4.0 °F 1.4 °F 67% 30.22 in 10.0 mi East 3.5 mph - N/A   Clear
4:55 PM 6.8 °F - 1.4 °F 79% 30.22 in 10.0 mi Calm Calm - N/A   Clear
5:15 PM 5.0 °F - 1.4 °F 85% 30.22 in 10.0 mi Calm Calm - N/A   Clear
5:35 PM 1.4 °F - -4.0 °F 78% 30.23 in 10.0 mi Calm Calm - N/A   Clear
5:55 PM -0.4 °F - -5.8 °F 78% 30.23 in 10.0 mi Calm Calm - N/A   Clear
6:15 PM -5.8 °F -14.5 °F -9.4 °F 84% 30.24 in 10.0 mi East 3.5 mph - N/A   Clear
6:55 PM -5.8 °F - -7.6 °F 92% 30.26 in 10.0 mi Calm Calm - N/A   Clear
7:15 PM -5.8 °F - -9.4 °F 84% 30.26 in 10.0 mi Calm Calm - N/A   Clear
7:35 PM -7.6 °F - -9.4 °F 92% 30.26 in 10.0 mi Calm Calm - N/A   Clear
7:55 PM -5.8 °F - -9.4 °F 84% 30.26 in 10.0 mi Calm Calm - N/A   Clear
8:15 PM -13.0 °F - -16.6 °F 84% 30.27 in 10.0 mi Calm Calm - N/A   Clear
8:35 PM -13.0 °F -25.1 °F -16.6 °F 84% 30.26 in 10.0 mi WNW 4.6 mph - N/A   Clear
8:55 PM -13.0 °F - -16.6 °F 84% 30.27 in 10.0 mi Calm Calm - N/A   Clear
9:15 PM -14.8 °F -29.1 °F -18.4 °F 84% 30.26 in 10.0 mi WNW 5.8 mph - N/A   Clear
9:35 PM -16.6 °F -26.8 °F -22.0 °F 76% 30.27 in 10.0 mi WNW 3.5 mph - N/A   Clear
9:55 PM -14.8 °F -24.8 °F -18.4 °F 84% 30.27 in 10.0 mi WNW 3.5 mph - N/A   Clear
10:15 PM -16.6 °F -31.3 °F -22.0 °F 76% 30.28 in 10.0 mi NW 5.8 mph - N/A   Clear
10:35 PM -14.8 °F - -18.4 °F 84% 30.29 in 10.0 mi Calm Calm - N/A   Clear
10:55 PM -14.8 °F - -18.4 °F 84% 30.29 in 10.0 mi Calm Calm - N/A   Clear
11:15 PM -16.6 °F -26.8 °F -22.0 °F 76% 30.29 in 10.0 mi West 3.5 mph - N/A   Clear
11:35 PM -16.6 °F -31.3 °F -22.0 °F 76% 30.29 in 10.0 mi WNW 5.8 mph - N/A   Clear
11:55 PM -16.6 °F -29.3 °F -22.0 °F 76% 30.29 in 10.0 mi West 4.6 mph - N/A   Clear